Temperature
15 15 14 14 14 15 15 15 15 15 15 16 16 16 16 16 16 15 15 15 15 15 15 15 15 15 15 15 15 15 15 15 15 15 15 15 15 15 15 15 15 15 15
15 15 14 14 14 14 15 15 15 15 15 15 16 16 16 15 15 15 15 15 15 15 15 15 15 15 15 15 15 15 14 15 15 15 15 15 15 15 15 15 15 15 15
15 15 14 14 14 14 14 15 15 15 15 15 15 15 15 15 15 15 15 15 15 15 15 15 15 15 15 15 15 14 14 14 14 14 14 14 15 15 15 15 14 14 15
15 15 14 14 14 14 14 14 14 15 15 15 15 15 15 15 15 15 15 15 15 15 15 15 15 15 15 15 14 14 14 14 14 14 14 14 14 14 14 14 14 14 14
15 14 14 14 14 14 14 14 14 14 14 15 15 15 15 15 15 15 15 15 15 15 15 15 15 15 14 14 14 14 14 14 14 14 14 14 14 14 14 14 14 14 14
14 14 14 14 14 14 14 14 14 14 14 14 14 15 15 15 14 15 14 14 15 15 15 14 14 14 14 14 14 14 14 14 14 14 14 14 14 14 14 14 14 14 14
14 14 14 14 14 14 14 14 14 14 14 14 14 14 14 14 14 14 14 14 14 14 14 14 14 14 14 14 14 14 14 14 14 14 14 14 14 14 14 14 14 14 14
14 14 13 13 14 14 14 14 14 14 14 14 14 14 14 14 14 14 14 14 14 14 14 14 14 14 14 14 14 14 14 14 14 14 14 13 13 13 13 14 14 14 13
13 13 13 13 13 13 13 13 13 14 14 14 14 14 14 14 14 14 14 14 14 14 14 14 14 14 14 13 13 13 13 13 13 13 13 13 13 13 13 13 13 13 13
13 13 13 13 13 13 13 13 13 13 13 13 13 13 13 13 14 14 14 13 13 13 13 13 13 13 13 13 13 13 13 13 13 13 13 13 13 13 13 13 13 13 13
13 13 12 13 13 13 13 13 13 13 13 13 13 13 13 13 13 13 13 13 13 13 13 13 13 13 13 13 13 13 13 13 13 13 13 12 12 13 12 13 13 13 13
13 12 12 12 12 12 12 12 12 12 12 12 12 13 13 13 13 13 13 13 13 13 13 13 13 13 12 13 13 12 12 12 12 12 12 12 12 12 12 12 12 12 12
13 12 12 12 12 12 12 12 12 12 12 12 12 12 12 12 12 12 12 13 13 13 12 12 12 12 12 12 12 12 12 12 12 12 12 12 12 12 12 12 12 12 12
12 12 12 12 12 12 12 12 12 12 12 12 12 12 12 12 12 12 12 12 12 12 12 12 12 12 12 12 12 12 12 12 12 12 12 12 12 11 12 12 11 12 12
12 12 12 12 12 11 11 11 11 11 11 11 11 11 11 11 12 12 12 12 12 12 12 12 12 12 12 12 12 12 12 12 12 12 11 11 11 11 11 11 11 11 11
12 12 12 11 11 11 11 11 11 11 11 11 11 11 11 11 11 11 11 11 12 12 11 11 11 11 11 11 11 11 11 11 11 11 11 11 11 11 11 11 11 11 11
12 12 11 11 11 11 11 11 11 11 11 11 11 11 11 11 11 11 11 11 11 11 11 11 11 11 11 11 11 11 11 11 11 11 11 11 11 11 11 11 11 11 11
11 11 11 11 11 11 11 10 11 11 10 10 10 10 10 10 10 10 10 10 11 10 10 11 11 11 10 10 10 10 10 10 10 10 10 10 10 10 10 10 10 10 10
11 11 11 10 10 10 10 10 10 10 10 10 10 10 10 10 10 10 10 10 10 10 10 10 10 10 10 10 10 10 10 10 10 10 10 10 10 10 10 10 10 10 10
10 10 10 10 10 10 10 10 10 10 10 10 10 10 10 10 10 10 10 10 10 10 10 10 10 10 10 10 10 9 9 9 9 9 9 9 9 9 9 10 10 10 9
10 10 10 10 10 10 10 9 9 9 9 9 9 9 9 9 9 9 9 9 9 9 9 9 9 9 9 9 9 9 9 9 9 9 9 9 9 9 9 9 9 9 9
10 10 10 10 10 10 9 9 9 9 9 9 9 9 9 9 9 9 9 9 9 9 9 9 9 9 9 9 8 8 8 8 8 9 9 9 9 9 9 9 9 9 9
10 10 10 10 9 9 9 9 9 9 9 8 8 9 8 8 9 9 8 9 9 9 9 9 9 9 9 8 8 8 8 8 8 8 8 8 9 8 8 8 8 8 8
9 9 9 9 9 9 9 9 9 9 8 8 8 8 8 8 8 8 8 8 8 8 8 8 8 8 8 8 8 8 8 8 7 7 8 8 8 8 8 8 8 8 8
9 9 9 9 9 9 9 8 8 8 8 8 8 8 8 8 8 8 8 8 8 8 8 8 8 8 8 8 8 8 8 8 8 7 7 7 8 8 8 8 8 8 8
8 8 8 8 8 8 8 8 8 8 8 8 8 7 7 7 7 7 7 7 7 7 8 8 8 7 7 7 7 7 7 7 7 7 7 7 7 7 7 7 7 7 7
Wind_Speed
3 3 6 8 8 9 9 9 10 9 9 10 10 10 10 10 9 9 9 9 9 10 9 10 11 11 11 11 12 12 12 13 13 13 13 13 14 14 14 14 14 14 15
5 5 8 9 9 9 9 9 9 9 9 9 9 9 9 9 9 9 9 8 9 9 9 9 10 10 11 11 11 12 12 13 13 13 12 12 13 13 13 14 14 13 14
5 6 7 9 9 9 8 8 8 9 8 8 8 8 8 8 8 8 8 8 8 8 8 9 9 10 10 11 11 12 12 12 12 12 11 10 11 12 13 13 14 14 14
6 6 7 10 10 9 8 8 8 8 8 7 7 7 7 7 7 7 7 7 7 8 8 9 9 10 10 11 11 11 12 11 11 11 9 9 9 11 12 12 13 13 13
5 5 7 10 9 9 8 7 7 8 7 7 6 6 6 6 6 6 6 7 8 8 8 9 9 10 10 11 11 11 11 11 11 10 9 8 8 10 12 11 11 12 12
5 5 7 9 9 8 7 7 7 7 7 6 6 6 6 5 5 5 6 8 8 8 8 8 9 9 10 10 10 10 11 11 11 10 8 8 7 9 10 10 10 10 10
4 4 6 8 8 8 7 7 7 6 6 6 5 5 5 5 5 6 6 7 7 7 8 8 9 9 10 10 10 10 10 10 10 9 7 7 8 9 9 9 9 9 9
5 4 5 7 7 7 7 7 6 6 6 6 5 5 5 5 5 6 6 6 6 7 7 8 8 9 9 10 10 10 10 10 9 8 7 6 7 8 9 8 8 8 9
4 4 4 4 5 6 6 6 6 6 5 5 5 5 4 5 5 5 5 5 5 6 7 7 8 8 9 9 10 10 10 9 9 7 6 5 6 7 7 7 7 7 8
3 3 3 4 4 4 4 5 5 5 5 5 4 4 4 4 4 4 4 4 5 5 6 6 7 8 9 9 9 10 10 9 7 6 5 5 5 6 6 7 7 7 8
2 2 2 3 3 3 3 4 4 4 4 4 4 4 4 4 4 4 4 4 4 4 5 6 7 7 8 8 9 9 8 7 6 5 4 4 4 5 5 6 7 7 8
5 3 2 3 3 3 3 3 4 3 3 4 4 4 4 4 4 4 4 3 3 3 4 5 6 7 7 7 7 8 6 6 6 4 4 4 4 5 5 5 6 7 8
6 4 3 3 3 3 3 3 3 3 3 3 3 3 4 4 4 4 3 3 3 3 3 3 4 5 6 5 5 5 6 6 5 4 4 4 4 5 5 5 5 6 7
5 6 4 4 3 3 3 2 3 2 2 2 2 3 4 3 3 3 3 2 3 2 3 3 3 4 5 5 5 5 5 5 4 4 4 4 5 4 5 4 4 6 7
6 6 5 4 4 3 3 2 2 2 2 2 2 3 3 3 2 2 2 2 2 2 3 3 3 4 4 4 5 5 4 4 4 4 4 4 4 4 4 4 4 5 6
6 6 5 5 5 4 3 3 2 2 2 2 2 2 3 3 3 2 1 1 1 2 3 3 3 3 3 3 3 4 4 4 4 4 3 3 4 4 4 4 4 5 5
6 5 5 5 4 5 4 3 2 2 3 2 2 3 3 3 3 3 2 1 1 2 3 3 4 3 3 2 2 2 3 4 4 4 3 3 3 2 3 4 4 5 5
5 5 5 4 4 4 4 3 3 3 3 2 2 3 3 3 3 3 2 2 2 3 3 3 3 3 2 2 2 2 2 3 3 3 3 2 3 2 2 4 5 5 5
6 5 4 4 5 5 4 3 3 3 2 2 2 2 3 3 3 3 2 2 2 3 3 3 3 3 3 2 2 2 1 2 2 2 2 2 2 2 2 3 4 5 4
5 4 4 3 4 4 3 3 2 2 1 2 2 2 2 2 3 3 2 2 2 2 2 3 3 3 3 3 3 2 2 1 2 1 1 2 2 2 2 3 4 4 4
4 4 4 4 3 4 3 3 3 2 2 2 2 2 2 2 3 3 2 2 2 3 3 3 3 3 2 3 3 2 2 2 1 1 1 1 1 1 2 3 3 3 3
5 5 4 4 4 4 4 3 3 3 2 2 1 2 2 2 3 3 3 3 3 3 3 4 4 3 2 3 3 3 1 1 1 1 0 1 0 0 1 2 3 3 3
4 5 5 5 5 4 4 3 3 2 1 1 1 1 2 2 3 3 3 3 3 3 4 4 4 4 3 2 2 3 3 3 1 1 1 0 0 0 0 1 2 3 4
4 4 4 4 4 4 5 5 5 3 2 2 2 2 1 2 2 3 3 4 4 3 4 4 3 3 5 4 2 1 1 3 3 1 1 1 1 1 2 1 2 2 3
2 3 3 3 3 4 5 5 5 3 2 1 1 1 1 1 1 2 3 3 4 3 4 4 4 4 4 4 3 2 2 1 1 2 2 1 1 1 2 2 2 3 4
1 2 2 4 3 3 4 4 4 4 3 2 1 2 1 1 1 2 3 3 3 3 4 5 4 5 5 4 4 3 3 3 3 2 2 2 2 2 2 2 3 3 4
Wind_Direction
188 195 171 150 142 133 126 120 115 112 108 105 106 109 113 116 119 119 117 119 116 114 113 113 112 112 110 108 106 105 103 100 97 95 95 96 97 97 96 94 90 90 93
162 168 158 149 146 140 133 127 119 113 110 109 108 110 116 121 123 126 124 121 119 116 115 116 116 112 112 112 110 108 104 101 97 95 95 96 99 100 99 100 95 94 94
139 152 151 149 145 141 136 131 125 118 112 110 111 112 114 123 126 127 129 126 123 120 119 121 120 118 114 112 113 113 109 106 103 98 95 95 101 104 103 101 99 97 96
137 142 148 145 141 141 139 134 128 123 119 114 113 113 116 119 124 124 128 125 124 120 120 122 122 121 119 117 116 116 114 110 104 98 92 94 101 107 106 103 101 99 98
126 134 146 144 142 142 140 137 132 128 124 122 117 112 114 118 120 125 124 121 118 116 119 122 123 123 121 119 119 118 117 113 103 96 93 93 99 106 105 103 101 100 101
125 128 141 144 143 140 139 139 136 133 131 126 121 118 117 118 120 118 117 116 117 116 118 121 123 123 122 121 123 121 118 115 108 100 98 100 104 109 108 105 106 106 106
130 125 140 146 145 143 143 144 143 138 135 131 126 122 122 119 115 113 114 114 118 124 124 123 123 120 120 122 123 121 118 116 111 106 106 108 114 114 111 109 109 111 111
131 113 127 143 143 144 145 147 147 145 138 134 131 126 121 115 109 107 112 120 123 132 133 130 127 123 121 123 123 121 121 119 116 111 112 114 119 116 116 115 114 114 118
114 107 101 116 125 134 139 142 145 144 137 132 133 129 125 119 114 111 112 116 120 133 136 135 133 128 126 128 127 124 123 123 117 113 113 119 123 124 125 125 125 124 123
115 116 105 108 109 109 119 135 141 141 135 131 121 119 117 117 118 115 114 112 110 124 132 134 136 132 130 129 129 125 122 121 118 117 114 123 127 129 132 133 136 131 127
158 147 134 117 110 114 114 125 125 126 123 123 114 114 109 99 103 104 107 112 108 118 136 135 140 135 132 129 129 130 125 124 124 124 127 133 136 132 131 134 136 132 135
190 186 166 148 133 122 117 110 111 114 109 105 107 108 102 100 101 101 109 110 115 117 138 140 140 137 129 124 127 131 128 127 129 139 148 146 146 140 134 133 137 133 135
192 187 180 170 150 138 121 116 111 111 103 99 108 115 114 102 95 89 88 87 92 96 105 120 122 121 123 125 124 129 132 133 138 150 160 160 155 141 134 129 129 129 134
190 197 190 176 162 153 139 134 129 117 108 97 105 116 112 98 93 92 86 82 82 97 103 102 106 112 119 128 129 128 131 135 141 147 150 157 162 154 145 137 135 133 134
198 202 198 186 177 164 145 154 142 136 135 131 118 119 125 121 129 111 97 89 94 111 116 116 119 119 120 125 129 130 130 136 137 139 145 152 157 162 167 166 160 151 142
207 207 196 189 182 169 167 170 158 147 148 138 137 143 142 131 130 128 128 115 110 129 134 134 135 130 126 125 123 131 136 136 138 142 145 155 163 169 178 185 179 170 157
206 203 198 196 179 174 174 175 156 153 151 155 162 156 152 146 143 142 151 159 165 142 129 119 121 120 120 118 131 122 129 133 136 142 148 155 164 185 195 191 189 179 173
195 193 198 189 174 176 173 166 158 152 153 166 167 155 157 160 154 144 155 175 173 143 135 143 144 146 146 139 136 132 114 125 134 135 137 143 150 167 197 197 191 180 180
196 190 188 178 174 175 165 156 157 152 159 163 159 155 160 161 159 151 159 163 157 144 148 161 154 158 160 149 138 117 102 111 111 120 120 138 149 150 170 194 187 179 182
195 189 185 176 172 161 145 133 133 137 153 149 155 162 162 161 159 148 152 153 152 156 164 163 158 150 156 154 135 103 77 71 77 90 131 144 149 165 178 182 183 188 191
187 182 182 177 175 156 150 157 161 179 178 170 172 170 166 167 163 157 161 162 166 177 182 169 159 152 144 133 116 97 47 49 71 68 80 90 84 185 184 184 178 182 194
190 190 188 189 180 173 171 170 168 168 177 176 171 164 174 179 177 170 175 181 180 176 174 171 159 157 155 148 140 140 130 342 324 320 58 129 96 86 152 195 180 179 185
199 197 193 194 184 176 159 143 122 108 100 132 173 195 205 209 196 183 186 180 180 180 186 188 180 167 170 180 162 156 160 204 216 306 284 260 251 186 231 221 205 196 192
209 198 186 180 175 168 155 156 158 165 182 203 198 205 230 215 210 191 188 182 181 183 186 195 190 180 171 179 172 140 144 152 162 206 302 276 256 242 237 248 231 213 206
194 182 173 159 162 165 162 165 167 169 180 166 155 188 214 229 217 193 189 185 189 192 195 193 188 185 183 184 180 168 145 119 137 169 226 266 296 263 242 236 233 221 219
135 144 151 156 164 163 165 167 171 173 169 156 165 189 209 221 222 202 192 187 190 194 199 197 195 193 193 187 186 179 172 171 176 170 196 219 247 270 264 236 223 224 223
Height
1511 1513 1515 1517 1519 1520 1522 1523 1524 1525 1526 1527 1528 1529 1530 1531 1532 1532 1533 1534 1535 1536 1536 1537 1538 1539 1540 1541 1541 1542 1543 1544 1544 1545 1546 1547 1548 1549 1549 1550 1551 1551 1552
1509 1512 1514 1516 1518 1520 1521 1523 1524 1525 1526 1527 1528 1529 1530 1531 1532 1533 1534 1534 1535 1536 1537 1538 1539 1539 1540 1541 1542 1543 1544 1545 1545 1546 1547 1548 1549 1550 1550 1551 1552 1552 1553
1509 1511 1513 1516 1518 1519 1521 1523 1524 1525 1526 1527 1528 1529 1530 1531 1532 1533 1534 1535 1535 1536 1537 1538 1539 1540 1541 1541 1542 1543 1544 1545 1546 1547 1548 1549 1550 1551 1552 1552 1553 1554 1555
1509 1511 1513 1515 1517 1519 1520 1522 1523 1525 1526 1527 1528 1529 1530 1531 1532 1533 1533 1535 1535 1536 1537 1538 1539 1540 1541 1542 1543 1544 1545 1546 1547 1548 1549 1550 1551 1552 1553 1553 1554 1555 1556
1509 1511 1513 1515 1516 1518 1520 1521 1523 1524 1525 1526 1527 1528 1529 1530 1531 1532 1533 1534 1535 1536 1537 1538 1539 1540 1541 1542 1544 1545 1546 1547 1548 1549 1550 1551 1552 1553 1553 1554 1555 1556 1557
1509 1510 1512 1514 1516 1517 1519 1520 1522 1523 1524 1525 1527 1528 1529 1530 1531 1532 1533 1534 1535 1536 1537 1538 1539 1541 1542 1543 1544 1545 1546 1547 1548 1549 1550 1552 1553 1554 1554 1555 1556 1557 1558
1508 1510 1512 1513 1515 1516 1518 1519 1520 1522 1523 1525 1526 1527 1528 1529 1530 1532 1532 1533 1535 1536 1537 1538 1539 1541 1542 1543 1544 1545 1546 1548 1549 1550 1551 1552 1553 1554 1555 1556 1557 1558 1558
1508 1509 1511 1512 1514 1515 1516 1518 1519 1521 1522 1523 1525 1526 1527 1528 1530 1531 1532 1533 1534 1535 1536 1538 1539 1540 1541 1543 1544 1545 1547 1548 1549 1550 1551 1552 1554 1555 1555 1556 1557 1558 1559
1507 1509 1509 1511 1512 1514 1515 1517 1518 1519 1521 1522 1523 1525 1526 1527 1529 1530 1531 1532 1533 1534 1536 1537 1538 1540 1541 1542 1544 1545 1547 1548 1549 1550 1551 1552 1554 1555 1555 1556 1557 1558 1559
1507 1508 1509 1510 1511 1512 1514 1515 1517 1518 1519 1520 1522 1523 1525 1526 1527 1529 1530 1531 1532 1533 1535 1536 1537 1539 1540 1542 1543 1545 1546 1548 1549 1550 1551 1552 1553 1554 1555 1556 1557 1558 1559
1505 1506 1507 1509 1510 1511 1512 1513 1515 1516 1517 1519 1520 1522 1523 1524 1526 1527 1528 1530 1531 1532 1533 1535 1536 1537 1539 1540 1542 1544 1545 1547 1548 1549 1551 1552 1553 1554 1555 1556 1557 1558 1559
1503 1504 1506 1507 1508 1509 1510 1511 1513 1515 1516 1517 1519 1520 1521 1523 1524 1525 1527 1528 1529 1531 1532 1533 1534 1536 1538 1539 1541 1543 1544 1545 1547 1549 1550 1551 1552 1553 1554 1555 1556 1557 1558
1501 1502 1504 1505 1506 1507 1508 1509 1511 1513 1514 1515 1517 1518 1519 1521 1522 1524 1525 1526 1528 1529 1530 1531 1533 1534 1536 1538 1539 1541 1543 1544 1546 1547 1549 1550 1551 1552 1553 1554 1555 1556 1557
1499 1500 1502 1503 1504 1505 1506 1507 1509 1510 1512 1513 1515 1516 1518 1519 1520 1522 1523 1524 1526 1527 1528 1529 1531 1532 1534 1536 1538 1539 1541 1543 1544 1546 1547 1549 1550 1551 1552 1553 1554 1555 1556
1496 1498 1499 1500 1502 1503 1504 1505 1507 1508 1509 1511 1512 1514 1516 1517 1518 1520 1521 1522 1524 1525 1526 1527 1529 1530 1532 1534 1536 1538 1539 1541 1542 1544 1545 1547 1548 1549 1550 1551 1552 1554 1555
1493 1495 1496 1497 1499 1500 1501 1503 1504 1506 1507 1509 1510 1512 1513 1515 1516 1517 1519 1520 1522 1523 1524 1525 1527 1528 1530 1532 1534 1535 1537 1539 1540 1542 1543 1545 1546 1548 1549 1550 1551 1552 1553
1491 1492 1493 1494 1496 1497 1499 1500 1502 1503 1505 1507 1508 1510 1511 1512 1514 1515 1516 1517 1519 1520 1522 1523 1525 1526 1528 1530 1531 1533 1535 1537 1538 1540 1541 1543 1544 1546 1547 1548 1549 1550 1551
1488 1489 1490 1491 1493 1494 1496 1498 1499 1501 1502 1504 1506 1507 1508 1510 1511 1512 1513 1515 1516 1518 1519 1521 1522 1524 1525 1527 1529 1531 1532 1534 1536 1537 1539 1540 1542 1543 1544 1546 1547 1548 1549
1485 1486 1487 1488 1489 1491 1493 1495 1496 1498 1500 1501 1503 1504 1506 1507 1509 1510 1511 1512 1514 1515 1517 1518 1520 1521 1523 1525 1526 1528 1530 1532 1534 1535 1537 1538 1539 1541 1542 1543 1544 1545 1546
1482 1483 1484 1485 1486 1488 1490 1492 1493 1495 1497 1499 1500 1502 1503 1505 1506 1507 1509 1510 1511 1513 1514 1516 1517 1519 1520 1522 1524 1526 1527 1529 1531 1532 1534 1535 1537 1538 1539 1540 1541 1543 1544
1478 1480 1481 1482 1483 1485 1487 1488 1490 1492 1494 1496 1497 1499 1501 1502 1503 1505 1506 1507 1509 1510 1512 1513 1515 1516 1518 1519 1521 1523 1525 1527 1528 1529 1531 1532 1534 1535 1536 1537 1538 1540 1541
1475 1476 1478 1479 1481 1482 1484 1486 1488 1489 1491 1493 1495 1496 1498 1499 1501 1502 1503 1504 1506 1507 1509 1510 1512 1513 1515 1516 1518 1520 1522 1524 1525 1526 1528 1529 1530 1532 1533 1534 1535 1536 1538
1471 1473 1475 1477 1478 1480 1482 1483 1485 1487 1489 1490 1492 1493 1495 1496 1497 1499 1500 1501 1503 1504 1506 1507 1509 1510 1512 1514 1515 1518 1519 1520 1521 1523 1524 1526 1527 1528 1529 1531 1532 1533 1534
1468 1471 1472 1474 1476 1477 1479 1481 1482 1483 1485 1487 1489 1490 1492 1493 1494 1496 1497 1498 1499 1501 1503 1504 1506 1507 1509 1510 1512 1514 1516 1517 1519 1519 1521 1522 1524 1525 1526 1528 1528 1530 1531
1466 1468 1470 1471 1473 1475 1476 1478 1480 1481 1482 1484 1486 1487 1489 1490 1491 1492 1493 1495 1496 1498 1499 1501 1502 1504 1505 1507 1508 1510 1512 1514 1515 1517 1517 1519 1520 1522 1523 1524 1525 1526 1528
1464 1465 1467 1469 1471 1472 1474 1475 1477 1478 1480 1481 1482 1484 1485 1486 1488 1489 1490 1492 1493 1495 1496 1498 1499 1501 1502 1504 1505 1507 1509 1510 1512 1513 1514 1515 1516 1518 1519 1520 1521 1523 1524